GFSSW_925_spd_168.txt.gz
Wind_Speed
21 21 20 21 21 21 20 19 19 19 19 16 13 10 10 12 12 8 7 3 5 11 7 8 8 8 6 4 5 4 1 9 8 9 8 9 9 6 3 10 6 6 16 17 20
23 22 21 21 21 21 21 19 19 19 19 15 12 10 11 13 7 11 8 5 6 12 7 8 5 6 5 2 2 5 9 11 8 8 10 7 4 9 7 10 9 14 21 24 21
23 23 23 22 22 22 22 20 19 18 17 15 12 10 10 10 7 1 3 11 12 14 5 5 5 8 5 2 3 2 10 10 13 13 11 11 8 5 8 7 12 18 19 20 19
25 25 24 23 22 22 22 21 19 17 17 15 11 10 8 3 6 5 3 7 15 13 7 6 7 5 3 3 3 7 9 11 12 12 11 10 10 8 3 12 15 17 18 19 17
27 27 26 24 23 22 22 21 18 17 17 15 10 7 4 7 10 3 6 2 16 12 12 8 7 5 5 4 5 12 13 14 13 13 12 11 9 11 14 14 15 17 15 15 15
27 28 27 26 24 23 23 20 19 18 16 13 8 3 6 11 0 4 1 6 12 14 10 7 4 6 2 5 4 9 16 14 13 12 12 12 12 6 10 14 13 13 15 13 16
27 28 28 27 26 24 22 20 20 18 15 9 5 2 8 12 3 2 3 5 6 12 7 5 3 7 1 9 13 16 16 12 10 7 9 6 10 12 13 14 13 11 10 11 13
28 29 29 28 27 26 24 21 19 16 7 3 2 3 7 5 10 13 7 7 5 10 6 2 5 3 3 12 9 6 11 8 9 4 6 8 10 12 13 13 13 12 11 12 13
27 29 31 30 27 26 23 20 11 3 1 4 2 6 8 4 9 13 17 10 10 9 7 3 6 1 9 11 9 9 8 4 7 7 3 6 10 13 13 11 11 12 12 11 12
27 29 31 31 28 26 23 13 2 1 2 2 4 6 8 7 5 7 17 13 13 11 9 8 7 10 10 10 10 9 6 7 5 9 8 5 7 13 14 12 10 11 11 12 12
27 29 31 32 29 22 18 4 5 6 10 13 2 9 3 3 6 10 17 17 13 15 13 14 11 14 15 10 8 2 3 2 4 7 7 7 4 12 14 13 12 11 11 11 11
26 28 31 32 27 13 6 4 6 6 9 17 18 14 10 1 6 11 20 16 16 18 18 9 17 16 7 5 7 7 6 4 4 4 9 6 8 10 14 13 12 13 13 13 13
25 27 30 33 16 6 5 4 7 5 7 9 16 18 17 15 11 17 20 21 20 22 20 17 18 10 13 11 11 9 7 3 6 2 11 4 11 13 13 12 12 12 12 14 15
24 26 29 34 2 14 2 1 11 3 6 10 11 11 15 14 14 16 24 20 15 24 21 21 11 14 15 16 13 12 8 5 4 7 3 9 6 12 15 15 16 16 15 15 16
24 24 25 20 15 7 3 10 9 4 6 10 13 8 14 23 12 20 26 19 20 17 18 19 13 17 18 18 15 11 3 5 5 10 6 9 8 8 14 14 18 18 18 17 17
22 24 24 11 13 13 13 14 4 7 13 9 10 15 18 24 17 23 22 19 12 15 16 18 9 19 20 11 12 8 7 5 7 7 9 10 11 13 10 17 18 20 19 18 19
23 25 24 18 6 3 13 7 7 13 6 13 12 20 22 21 22 20 27 25 16 20 17 13 15 12 10 14 12 16 14 9 8 7 5 5 8 2 7 10 8 19 22 21 20
25 27 21 18 15 10 7 8 16 15 20 1 11 17 21 24 27 23 29 26 26 21 18 19 20 18 14 20 14 19 19 11 12 11 7 5 8 6 3 3 7 12 19 23 21
26 17 17 11 8 13 8 16 15 14 24 10 13 18 19 19 17 21 26 29 28 24 16 20 22 23 17 19 19 18 21 21 14 2 5 10 7 8 12 10 9 13 17 21 22
17 19 18 9 8 14 10 25 17 14 4 19 17 18 21 25 18 26 24 28 30 25 22 12 18 17 19 17 19 14 20 12 10 11 13 8 9 6 9 5 3 11 17 17 17
12 5 5 5 12 9 16 24 27 10 6 11 22 12 16 20 24 27 24 14 30 28 23 11 12 15 20 18 21 10 13 14 14 14 11 7 10 9 6 1 3 10 15 17 17
7 5 4 6 9 10 16 22 18 22 12 9 7 19 12 17 24 23 25 21 25 26 29 20 11 13 22 23 23 24 21 20 11 11 12 9 4 7 6 4 3 7 13 14 15
4 6 3 8 7 13 14 21 15 20 18 12 9 9 11 12 14 23 21 21 20 24 25 24 12 13 19 12 13 21 23 24 21 15 16 13 12 10 6 6 5 7 12 12 12
4 3 5 6 5 10 14 17 21 17 17 12 9 4 9 11 10 12 22 15 16 22 14 22 19 20 17 19 16 21 21 20 23 14 16 14 16 9 10 10 9 8 9 12 11
3 1 2 3 5 6 5 5 17 22 18 14 11 13 11 9 12 14 20 15 16 14 20 19 22 19 21 6 26 22 24 25 26 24 20 16 16 16 11 11 10 9 9 10 11
5 4 1 7 6 9 7 11 11 13 18 22 15 16 10 9 4 13 16 16 15 13 22 20 16 18 21 14 11 19 25 26 25 25 25 20 18 13 13 15 7 10 10 12 12
2 6 4 2 5 6 6 6 7 3 9 14 11 15 12 13 3 6 7 5 4 14 16 19 15 15 20 21 19 19 20 17 15 17 14 18 14 10 12 13 15 14 14 14 14

GFSSW_925_spd_174.txt.gz
Wind_Speed
23 22 21 21 21 21 21 20 20 19 19 20 19 18 19 21 20 10 10 2 6 8 5 11 12 18 19 18 19 13 4 10 13 16 11 8 17 19 17 14 8 13 20 24 27
26 25 24 23 21 21 22 21 20 19 19 20 19 18 19 21 18 17 16 11 8 8 8 15 16 14 14 17 8 9 10 13 14 12 8 12 12 20 18 17 16 21 25 28 29
28 27 26 25 24 23 21 22 21 19 19 20 19 18 18 19 10 15 5 11 12 11 13 18 20 19 20 14 20 5 14 14 14 14 14 11 9 7 20 14 19 22 23 24 26
30 29 28 27 26 25 24 22 21 20 20 20 19 18 16 7 7 7 1 5 10 12 14 18 21 21 23 2 10 18 16 15 14 11 14 11 11 18 17 19 20 21 23 25 18
29 30 29 28 27 26 25 24 21 20 20 20 18 16 9 9 19 13 2 4 8 10 15 15 19 19 14 8 9 16 15 13 14 14 12 17 16 16 17 22 22 21 18 17 15
28 30 31 30 29 27 27 25 22 21 20 19 16 11 6 17 24 8 7 8 10 15 17 16 19 14 14 28 3 1 15 14 14 11 17 16 17 14 14 22 21 19 17 17 18
29 30 31 32 30 28 27 26 24 21 19 16 12 7 12 20 15 11 14 17 16 17 15 18 19 15 15 6 22 19 16 13 13 13 16 17 18 15 17 18 16 15 15 14 14
30 31 33 34 32 29 28 26 24 20 16 12 8 6 10 17 26 24 14 18 20 17 18 21 13 14 14 21 18 29 10 3 10 14 8 14 12 17 18 16 15 17 15 13 15
30 31 33 35 33 29 29 27 23 18 12 7 6 9 16 6 23 23 26 20 20 18 18 18 11 16 12 13 11 12 8 17 15 9 15 8 17 18 18 15 15 15 15 14 14
30 32 34 36 34 28 29 25 17 16 8 8 16 10 22 19 18 24 24 22 17 15 16 14 11 14 15 12 5 15 20 14 17 9 8 17 18 17 18 18 15 16 15 16 17
29 31 34 36 31 27 28 11 5 6 13 15 12 16 22 23 19 20 25 22 20 17 18 19 14 16 21 19 25 28 14 25 19 12 5 4 17 18 16 15 17 16 15 14 15
29 31 33 37 30 22 14 7 10 9 11 18 27 25 31 16 11 14 24 22 21 20 20 19 19 21 20 14 28 9 24 14 15 9 2 14 20 18 17 15 17 17 17 17 17
28 30 33 35 24 12 12 16 10 15 9 20 25 26 25 23 17 18 22 24 24 23 22 22 22 24 20 16 18 20 13 7 11 9 8 9 19 18 17 14 16 17 17 17 17
26 29 31 35 13 20 12 9 12 13 7 16 23 28 28 25 23 24 29 24 21 25 26 22 25 23 22 16 15 16 11 6 10 7 6 12 6 15 19 15 17 17 17 17 17
25 26 28 21 22 12 18 16 15 12 7 10 29 15 30 31 12 26 25 25 27 23 22 25 25 24 22 19 17 12 11 13 7 6 9 15 5 12 19 17 17 18 19 19 18
25 25 26 17 13 18 21 19 13 7 15 9 11 26 28 30 31 21 24 25 25 24 26 27 26 24 22 13 16 11 8 4 2 9 10 13 7 8 17 16 19 20 20 20 19
25 26 25 20 14 17 15 11 7 13 14 15 22 23 25 28 30 27 29 28 25 25 25 28 30 26 24 20 19 20 16 6 8 10 11 12 12 9 17 19 18 18 21 20 20
26 28 25 24 22 19 15 10 15 17 29 12 21 21 25 28 29 31 29 26 31 27 19 21 24 29 24 20 20 21 18 11 10 11 13 6 7 7 16 15 19 19 20 21 21
25 22 23 22 20 17 9 15 15 23 30 29 20 23 23 28 25 30 29 29 31 31 27 22 27 27 27 18 22 22 19 15 20 17 9 8 6 17 17 17 13 20 21 21 20
18 23 29 24 21 21 12 26 22 23 28 25 30 21 22 27 30 31 30 30 31 34 28 20 17 25 28 16 23 23 16 18 14 17 14 10 13 10 15 13 12 10 18 21 21
15 6 20 6 24 11 18 25 25 34 29 26 24 28 23 26 29 24 32 25 32 34 29 30 20 21 23 22 25 18 20 16 19 15 14 5 9 14 16 14 14 17 12 18 21
16 10 7 9 10 12 17 26 26 31 30 28 26 30 25 23 27 31 34 31 30 31 34 29 16 16 30 25 26 24 23 22 13 19 14 10 11 14 17 15 12 9 7 13 20
7 10 22 10 13 15 20 27 28 30 32 29 30 28 20 21 21 29 30 31 27 32 30 25 21 14 20 24 24 27 25 24 20 18 17 11 2 17 16 14 12 10 9 8 11
6 4 6 7 15 20 21 24 26 30 32 31 29 28 20 21 23 21 29 29 32 31 26 25 22 17 16 18 20 23 25 27 25 16 17 17 8 6 13 12 11 5 12 9 7
4 1 2 6 12 20 21 22 23 28 29 28 28 29 22 20 22 23 23 28 27 28 26 25 23 22 23 20 25 24 26 25 25 21 19 18 15 14 11 10 13 12 14 11 9
4 5 4 12 13 22 9 13 23 21 27 28 27 24 21 22 21 16 18 21 23 27 22 27 20 21 24 25 21 28 28 27 26 25 23 23 17 19 19 17 11 14 15 11 11
15 20 8 13 13 13 7 15 14 21 21 27 23 18 22 15 17 19 20 20 20 21 22 22 18 19 20 24 23 21 27 28 25 25 24 20 17 12 8 9 12 14 14 14 12

GFSSW_925_spd_180.txt.gz
Wind_Speed
24 24 23 23 22 22 23 23 22 21 20 22 22 23 24 27 26 15 6 6 3 7 2 3 6 11 8 5 8 3 3 2 7 16 10 13 17 8 9 12 3 7 9 15 25
26 25 24 24 23 22 23 23 23 22 21 22 22 21 22 26 23 11 16 13 12 10 2 5 4 4 1 5 0 5 4 5 6 15 17 18 21 12 7 10 8 12 18 25 21
27 27 27 25 25 23 23 23 24 23 21 22 22 21 21 18 5 7 6 5 8 9 6 7 10 4 4 5 5 2 4 8 20 14 19 18 14 7 16 4 12 22 22 18 19
27 28 29 28 26 25 24 23 23 21 22 22 22 21 18 6 4 1 6 12 6 9 4 3 2 5 3 5 4 6 6 8 5 13 15 15 10 13 4 5 16 18 20 19 13
29 29 30 30 28 26 24 24 22 21 21 21 21 20 7 3 9 16 17 20 14 8 4 2 4 3 2 6 5 3 6 15 20 20 15 15 10 10 14 17 17 19 19 15 13
29 31 32 32 30 28 26 25 22 20 19 18 18 15 2 6 18 20 15 14 15 9 3 4 4 4 8 4 5 2 12 16 18 18 15 20 16 5 15 18 18 17 15 13 13
31 32 34 34 32 29 28 27 23 20 18 16 13 7 3 17 11 12 18 29 22 20 8 12 10 3 7 2 2 5 8 9 16 11 13 18 5 10 18 20 20 18 14 15 16
32 34 36 36 34 31 31 29 24 21 18 13 7 1 8 16 19 24 25 22 22 20 20 22 19 3 1 3 6 5 6 4 3 7 11 5 5 14 16 17 17 17 16 15 13
34 36 38 39 37 33 33 29 26 20 11 5 2 4 10 10 9 24 28 16 16 16 19 15 5 4 3 4 5 8 1 1 0 3 7 2 10 14 16 15 16 16 16 14 14
34 37 39 40 38 37 32 28 9 2 4 2 3 2 8 6 5 12 17 18 7 5 7 1 3 4 3 3 4 4 2 3 3 4 15 5 7 20 19 17 16 14 14 14 16
32 35 39 41 38 32 26 6 7 5 4 7 6 6 9 4 17 7 10 10 4 1 6 4 4 7 10 9 8 8 5 5 4 2 4 2 13 21 18 15 16 15 14 14 15
31 34 37 41 38 13 19 4 5 14 10 9 17 19 35 13 9 14 6 8 6 9 4 2 7 12 9 11 6 12 8 5 5 7 4 7 11 17 20 20 21 20 18 18 15
30 33 36 39 26 9 21 5 28 32 4 7 10 9 8 12 11 19 3 7 7 8 7 8 8 6 8 5 6 1 4 4 6 4 5 10 3 14 18 17 16 17 17 17 18
28 30 34 39 4 29 14 28 31 24 3 7 8 10 9 10 8 12 14 7 6 13 5 7 10 11 9 12 10 6 9 9 7 2 4 8 4 12 17 19 18 18 17 18 18
27 29 30 29 20 12 17 31 33 2 4 5 6 3 8 14 7 9 24 6 15 7 8 10 10 12 14 11 21 16 8 15 15 10 2 5 4 6 10 15 19 19 20 18 20
28 28 30 23 20 13 22 30 6 4 8 6 4 6 9 7 7 2 6 6 7 9 6 13 4 9 14 12 17 7 8 15 6 4 7 16 6 4 12 21 22 20 20 19 18
27 29 31 22 6 21 18 8 3 4 6 6 5 6 6 8 16 6 17 10 10 13 11 5 13 14 6 7 6 14 13 4 3 2 7 9 4 9 23 16 24 24 22 20 19
30 31 29 24 20 13 9 4 4 5 11 7 5 1 11 6 11 8 6 13 6 6 5 10 9 19 7 11 9 8 19 6 7 5 5 6 7 10 27 22 23 25 27 21 20
31 28 22 21 8 5 4 2 7 6 5 12 16 7 5 6 7 12 12 9 14 11 12 8 9 6 13 12 10 8 3 8 7 2 3 4 6 6 17 20 20 20 19 20 21
24 13 13 12 1 8 3 5 5 3 11 7 4 9 8 11 7 19 11 11 7 13 9 5 2 7 7 7 9 8 5 3 3 3 2 5 5 4 10 20 20 20 23 21 20
10 4 8 17 4 4 4 6 7 20 12 10 12 8 6 6 8 7 9 12 21 12 13 6 4 7 5 8 15 1 3 4 6 5 6 2 6 8 17 19 23 24 25 23 23
7 3 10 23 3 1 5 5 8 19 14 11 7 6 12 7 8 5 6 4 14 20 13 11 5 7 12 3 9 9 12 8 5 4 2 5 6 6 14 16 19 23 23 23 24
3 3 9 9 3 3 6 5 5 16 21 7 5 11 13 9 7 10 7 7 21 20 20 12 8 1 6 7 4 6 6 6 6 4 6 5 7 3 8 15 22 23 22 22 23
2 4 4 4 2 3 5 5 7 12 13 10 15 17 17 15 8 10 15 13 19 19 22 17 5 17 10 8 5 4 7 7 8 5 6 7 9 13 6 12 10 20 24 21 21
1 2 3 4 3 4 3 5 9 7 4 9 9 15 16 6 9 14 14 12 16 12 17 17 16 9 21 15 6 5 8 9 7 7 7 9 8 12 6 11 16 19 19 20 19
1 1 2 5 9 4 2 4 9 11 4 13 9 16 10 17 18 10 12 8 10 10 12 9 10 10 16 11 6 11 10 17 12 6 8 8 8 8 6 1 8 16 20 20 19
3 3 1 5 4 2 4 7 12 13 11 9 12 17 15 17 21 21 18 17 16 12 5 6 17 9 16 15 11 7 8 13 13 13 13 11 12 5 6 9 14 10 13 20 20

GFSSW_925_spd_183.txt.gz
Wind_Speed
25 25 24 24 23 22 22 21 22 22 20 22 21 22 23 26 25 12 5 1 3 7 7 7 8 10 9 4 6 4 3 3 5 6 5 7 5 5 7 8 3 3 5 17 25
26 26 25 25 24 24 23 22 22 22 21 21 22 22 22 25 20 8 6 6 4 2 6 8 5 8 4 5 4 4 4 7 8 7 9 13 7 8 6 3 4 8 16 27 24
27 27 27 27 26 25 25 24 23 22 20 22 21 21 21 18 6 4 9 12 5 3 4 6 5 3 2 3 3 4 5 5 8 8 15 13 10 4 11 3 5 11 19 19 20
27 29 29 29 28 27 25 25 24 21 21 21 21 21 17 6 4 3 4 12 12 8 6 4 3 4 2 4 3 3 5 4 9 11 11 10 5 8 2 2 9 15 20 17 13
28 30 32 32 31 29 26 25 24 21 20 19 19 18 6 3 9 10 11 15 9 6 4 4 2 3 3 3 2 4 4 4 16 13 11 11 8 6 6 9 14 17 15 13 10
31 33 34 34 33 32 28 27 24 22 20 17 17 12 1 6 10 15 15 5 6 6 3 4 3 5 3 4 3 3 10 11 15 13 12 11 6 4 5 11 13 13 11 9 9
32 34 36 37 36 34 31 29 25 22 20 17 13 4 1 14 11 12 17 23 24 18 5 10 8 3 5 5 6 5 10 10 8 6 6 14 5 4 11 11 12 11 10 9 9
32 34 37 38 39 36 35 30 25 24 19 13 7 2 7 15 16 22 22 20 15 13 17 19 10 4 4 2 6 5 5 4 5 7 7 0 0 7 12 12 10 12 10 11 10
32 34 37 39 40 37 34 29 23 14 6 4 3 3 9 8 8 15 20 12 6 8 9 10 4 3 4 5 4 6 5 2 4 9 7 2 3 12 14 14 14 13 12 12 11
32 35 37 39 41 35 29 14 10 11 8 4 1 2 6 5 6 11 14 16 5 1 0 2 4 3 4 4 5 5 4 3 4 6 4 5 5 15 15 12 12 12 13 14 13
31 34 38 39 42 21 28 5 7 5 8 6 4 4 5 12 7 5 6 9 5 5 5 2 4 6 11 9 4 6 5 6 3 2 4 5 9 18 17 13 13 12 14 13 13
31 33 37 38 34 15 16 6 6 5 10 9 16 14 30 8 6 4 3 5 6 6 6 2 6 9 7 3 4 5 4 5 2 6 4 6 8 16 18 19 16 15 13 14 11
30 32 36 38 17 17 12 7 19 16 4 8 8 7 7 13 9 10 5 2 6 7 8 8 6 8 8 5 6 4 5 3 3 5 4 6 1 9 12 11 13 14 13 13 13
29 31 34 40 5 26 11 25 25 8 3 7 6 9 8 10 7 11 13 6 2 14 8 7 6 7 5 9 8 8 11 8 8 4 3 4 4 7 13 18 15 17 16 15 14
30 31 32 26 14 12 16 28 25 3 4 4 5 1 4 12 8 10 14 4 8 6 9 9 9 12 8 10 9 10 8 10 5 5 4 3 1 5 15 16 19 19 19 17 16
32 32 33 20 19 10 24 24 4 4 8 6 3 4 5 3 4 5 7 4 6 3 2 9 3 9 11 10 12 6 2 3 5 4 2 6 7 5 8 20 19 20 20 19 17
32 34 31 16 6 18 17 6 4 4 6 5 3 5 4 7 7 6 12 12 8 8 11 2 13 3 3 3 6 4 7 3 4 1 7 6 6 14 10 10 18 21 21 20 17
32 31 26 20 14 8 7 4 4 4 8 7 8 11 5 6 7 6 11 14 11 6 6 9 7 12 6 9 8 8 9 6 6 3 5 4 6 10 19 17 19 19 21 19 17
32 23 14 8 4 3 4 2 6 1 5 12 10 6 7 8 3 6 6 19 16 10 8 8 7 2 9 5 11 5 5 10 2 5 3 5 7 6 6 14 14 15 13 16 17
26 11 7 18 1 3 4 4 4 3 9 6 6 7 6 9 9 6 9 5 7 13 6 6 2 6 4 6 5 10 7 3 2 6 7 5 5 5 3 11 13 14 17 17 16
8 4 2 20 10 4 3 6 5 3 9 6 4 6 4 6 6 5 4 4 9 7 8 6 4 4 7 8 16 4 3 4 5 6 6 2 6 6 10 12 18 18 18 17 17
5 3 10 20 3 1 2 3 7 7 4 4 5 7 6 5 5 4 5 4 12 3 11 8 5 4 10 1 5 10 10 8 5 5 3 4 7 4 10 14 14 14 15 18 17
3 3 7 7 3 2 5 4 3 4 5 5 6 2 4 5 5 6 6 7 12 10 7 8 5 1 2 5 2 6 6 6 5 4 6 7 7 3 4 6 11 15 15 16 18
2 3 4 4 0 2 4 3 4 4 3 7 5 5 6 8 7 8 6 9 17 18 17 7 5 12 8 6 6 6 7 7 8 5 6 6 8 6 7 11 12 17 17 18 18
1 1 1 3 2 4 1 3 4 4 3 4 4 5 6 5 5 12 13 15 14 6 6 9 8 7 18 6 2 6 7 10 8 8 8 8 9 10 8 10 10 19 20 16 17
2 1 3 3 4 3 1 3 6 7 2 6 6 7 6 5 8 12 11 5 8 5 8 8 6 9 9 18 21 9 8 8 11 6 5 7 9 9 3 4 6 13 15 16 17
1 1 3 4 3 2 1 3 8 13 9 15 12 12 14 13 9 9 12 18 18 16 9 5 2 7 19 7 6 11 22 10 7 6 10 9 11 4 6 8 8 10 15 20 20

GFSSW_925_spd_186.txt.gz
Wind_Speed
27 27 26 26 25 24 23 23 22 22 21 22 22 24 24 27 24 10 4 2 5 11 7 14 7 7 5 3 5 3 2 3 6 7 4 7 4 3 6 8 4 4 3 18 27
28 28 28 28 27 27 25 24 24 23 21 22 22 23 23 25 20 6 4 4 5 11 9 12 4 8 2 3 3 3 3 7 8 7 6 7 6 6 5 6 5 10 18 25 24
30 30 30 30 30 29 28 25 24 23 22 22 21 22 21 18 4 2 12 11 5 8 5 5 4 6 4 4 3 5 4 4 3 7 13 8 5 3 9 2 5 14 17 21 21
31 32 33 32 32 30 29 27 26 24 21 21 21 21 18 8 3 3 2 7 8 1 3 2 3 3 1 3 5 2 2 4 6 9 8 7 4 5 6 4 11 18 21 22 17
31 33 35 35 34 33 30 28 28 25 21 19 19 17 7 4 9 5 8 6 2 3 2 1 2 2 3 4 4 3 3 6 11 13 8 10 6 5 5 7 15 21 20 17 17
32 33 35 37 36 35 31 31 28 25 21 18 16 10 1 5 7 9 10 3 2 6 4 2 0 2 2 5 4 5 10 9 7 9 5 7 3 2 5 11 16 19 18 16 16
31 34 36 38 38 38 33 30 28 26 21 17 12 3 1 14 9 7 10 16 19 20 5 4 2 1 2 4 2 6 7 8 4 3 3 8 4 3 10 12 12 11 12 11 13
32 34 37 39 40 40 33 27 30 24 20 14 6 4 7 13 15 18 19 17 13 11 15 15 11 1 1 4 5 6 5 4 3 5 5 3 3 5 9 12 9 11 10 11 12
32 35 37 39 40 38 30 28 13 8 3 5 6 4 9 7 7 8 14 9 5 10 10 7 3 3 4 5 4 5 4 3 2 8 5 2 2 8 9 9 10 9 10 10 10
33 35 38 41 41 31 29 11 6 6 7 4 2 2 6 2 4 5 6 10 4 5 1 3 4 3 3 4 7 5 3 1 5 8 5 6 3 11 12 10 11 10 10 10 11
32 34 38 40 40 23 25 5 7 4 7 5 2 4 6 11 3 3 2 7 4 4 7 4 4 6 10 8 5 6 3 6 3 6 5 7 5 13 13 9 8 7 10 10 11
32 34 37 38 30 22 16 6 4 4 9 7 11 11 19 6 5 4 3 5 5 7 5 4 7 10 3 6 5 5 3 3 1 3 3 5 2 8 13 14 13 12 8 10 7
33 34 37 38 16 20 10 9 15 5 3 9 7 7 6 12 8 8 6 5 4 7 8 9 8 8 7 5 5 4 6 5 2 4 3 6 3 5 8 10 11 11 11 9 11
32 33 35 38 5 23 6 18 22 3 3 8 5 8 6 9 7 12 14 6 3 10 9 5 4 8 6 6 7 4 8 6 8 4 3 3 4 5 8 15 15 14 14 13 12
32 32 32 26 14 9 10 24 19 5 5 3 4 1 4 9 4 8 17 4 8 6 8 9 9 8 7 8 9 9 7 8 4 2 4 0 1 6 8 9 18 17 17 16 15
32 31 32 17 16 13 21 24 1 4 8 6 2 2 3 4 4 3 5 4 6 4 1 8 4 9 9 5 14 6 7 7 5 4 1 7 6 5 6 11 16 15 17 17 16
32 30 27 15 5 17 17 6 3 4 6 6 5 7 5 4 4 3 8 9 8 7 5 1 4 3 5 5 5 6 7 1 1 1 5 3 2 11 7 8 13 20 17 17 15
31 29 14 10 14 11 6 3 5 4 5 4 7 10 2 7 5 6 8 11 4 7 6 7 6 9 5 11 9 8 9 6 6 4 3 4 6 7 6 8 13 15 18 16 15
31 22 3 17 11 3 4 2 6 1 5 8 6 6 6 6 7 4 8 11 16 9 8 7 6 3 6 4 14 5 6 8 7 2 3 3 8 10 1 6 11 11 11 15 17
25 11 5 20 4 2 4 3 3 4 6 5 4 5 4 6 9 7 6 4 7 10 4 8 3 5 9 4 3 9 9 4 2 3 2 5 5 6 4 8 10 10 14 15 15
8 4 3 17 2 4 2 5 4 2 9 6 5 5 4 5 4 5 4 5 9 9 6 7 3 4 7 10 9 4 5 6 6 4 6 1 6 8 6 10 15 15 14 16 16
5 3 11 10 3 1 2 2 4 3 3 3 3 4 3 5 4 4 4 3 11 7 14 6 5 4 11 1 6 7 8 7 6 4 2 4 7 3 8 8 10 12 14 13 14
2 3 6 6 2 3 5 4 3 2 0 3 3 2 2 3 5 5 4 8 7 11 5 3 4 2 2 4 3 16 6 6 7 4 8 6 7 4 4 8 8 8 8 13 12
2 3 4 4 0 2 4 4 4 5 3 4 4 4 4 3 6 6 7 8 15 17 19 3 3 11 8 6 6 6 11 8 8 5 6 7 7 5 3 8 8 9 9 9 13
1 1 1 3 3 3 2 2 3 4 4 3 3 4 3 4 5 5 3 6 8 7 7 4 6 7 12 4 3 7 10 10 16 8 12 11 9 10 11 10 11 15 10 10 12
1 1 3 2 3 3 2 3 2 1 3 4 3 6 7 3 5 9 10 3 8 7 9 8 4 6 10 15 15 5 5 17 14 6 6 6 9 10 5 5 6 10 10 15 18
2 1 3 2 3 1 3 1 3 10 6 7 9 11 9 10 6 8 9 9 11 8 5 4 4 6 14 7 4 12 22 8 6 5 11 12 12 5 6 9 11 11 13 18 20

GFSSW_925_spd_192.txt.gz
Wind_Speed
26 27 27 27 26 26 25 23 23 21 20 19 20 19 19 22 22 8 3 2 5 20 14 12 7 7 9 6 8 4 5 3 5 0 13 11 8 5 5 11 4 4 4 23 25
27 28 29 28 29 28 26 24 24 22 21 19 18 18 19 21 16 9 4 2 6 17 16 13 8 9 6 4 4 6 4 6 3 8 8 10 7 10 7 11 7 9 18 28 24
28 29 29 29 30 28 27 26 25 24 22 19 17 16 15 16 9 4 6 6 9 15 5 8 6 9 8 4 4 3 6 5 4 6 10 11 11 7 12 9 11 16 20 26 26
29 30 31 31 30 29 28 27 25 23 22 19 16 14 12 5 4 7 7 4 7 10 5 6 6 8 7 2 3 4 4 5 8 6 8 9 10 7 5 9 11 16 22 26 21
29 32 33 33 30 30 30 28 26 24 22 19 15 10 4 7 8 5 6 5 8 9 8 6 8 7 6 3 4 3 7 6 7 6 7 8 7 7 6 2 12 17 22 22 20
30 32 33 34 33 32 30 27 27 26 23 18 12 5 6 12 3 6 6 6 7 8 5 6 6 8 8 2 6 6 8 10 8 9 8 6 7 6 4 7 14 18 21 21 19
30 32 33 34 34 34 29 28 26 23 19 15 8 4 9 17 2 5 6 8 8 7 9 7 7 9 7 3 5 11 10 8 8 10 5 5 8 4 10 11 15 18 19 20 19
30 32 34 34 34 31 30 26 24 15 16 9 5 5 8 5 10 17 17 19 16 15 13 14 9 11 10 4 7 10 9 11 12 9 6 7 9 11 13 14 15 16 18 18 18
31 32 34 34 35 30 28 26 11 8 9 7 3 7 9 4 10 12 18 15 14 14 11 4 8 13 7 13 10 9 10 7 8 11 6 11 7 13 15 15 15 17 18 16 17
31 32 33 34 34 29 26 15 7 5 4 3 3 5 8 3 3 4 6 11 11 12 11 13 9 12 13 13 13 9 13 7 6 9 11 9 5 13 17 18 18 17 18 18 18
31 33 34 33 30 26 26 7 4 6 3 9 3 14 2 8 7 9 10 11 12 15 18 19 14 19 20 17 17 7 8 8 4 3 10 11 8 15 16 17 19 21 20 21 21
30 32 33 33 21 21 12 6 6 5 10 10 15 19 24 10 5 13 10 12 13 19 23 18 22 23 20 18 16 14 11 11 4 3 11 8 10 10 18 20 18 20 21 22 21
31 32 31 32 11 13 12 10 7 4 7 9 11 12 13 18 10 11 17 17 14 21 24 27 22 23 21 17 17 16 14 10 11 6 12 9 14 13 17 18 18 19 20 21 22
30 32 32 28 4 12 3 9 11 4 5 6 6 5 10 10 12 26 18 13 14 19 23 27 24 24 23 23 20 19 14 11 7 10 8 5 8 14 18 21 21 20 21 21 22
30 30 29 17 10 6 7 13 9 5 6 5 5 3 0 15 3 18 30 16 18 15 17 21 26 22 22 26 23 19 6 11 10 11 12 11 7 6 16 16 23 23 22 21 22
30 29 24 8 5 7 13 12 4 7 11 2 1 2 7 13 16 3 19 23 16 17 18 22 16 21 28 25 23 18 8 9 9 11 11 15 8 8 12 16 20 23 23 22 22
30 26 11 5 8 13 10 5 6 8 4 2 3 3 7 9 15 15 19 24 18 19 19 21 23 17 17 25 21 19 17 10 10 10 11 6 7 15 4 5 9 23 25 24 22
29 18 7 5 12 8 6 7 11 2 12 7 6 12 9 3 12 20 19 22 28 23 15 20 22 23 17 26 20 26 23 13 11 12 12 7 8 6 2 3 6 13 25 24 23
25 9 3 5 10 5 6 9 6 7 6 9 16 11 10 4 5 6 23 21 27 26 21 20 29 28 22 21 26 24 25 23 13 9 11 11 11 12 14 2 7 15 24 25 24
18 8 2 10 5 9 7 8 3 2 6 6 11 1 7 3 6 7 18 7 19 29 24 14 17 19 27 19 25 24 22 21 12 18 14 13 10 8 9 3 8 15 23 24 22
8 5 5 9 5 6 7 1 3 4 4 4 6 10 7 4 6 6 7 9 10 11 22 23 16 22 22 21 23 20 20 20 19 15 12 12 12 13 3 4 11 16 21 23 23
6 5 5 8 7 1 5 0 2 7 6 8 6 10 11 6 6 4 3 7 8 11 14 26 13 15 27 26 26 27 23 26 16 20 14 10 7 8 2 3 11 18 19 20 21
6 4 2 6 5 3 1 6 5 6 7 7 9 7 6 8 5 3 2 4 10 8 4 15 14 16 19 23 26 27 28 25 24 17 20 14 7 7 5 5 12 18 19 19 19
4 3 3 0 2 6 3 3 6 4 9 8 10 9 11 13 11 6 7 4 12 9 11 7 16 23 20 24 23 28 27 28 28 19 19 20 19 12 4 8 11 17 19 18 18
2 2 1 2 3 5 4 2 6 6 8 6 9 11 5 7 11 14 10 10 5 7 9 5 17 21 25 19 23 26 29 29 28 28 24 19 23 15 6 3 9 12 16 19 20
4 3 4 5 4 7 5 5 6 2 5 6 9 6 6 9 9 12 9 8 5 8 9 11 9 16 21 23 13 28 30 29 28 28 26 26 19 20 12 4 7 14 16 18 20
2 2 5 2 4 4 3 5 3 3 6 5 2 7 12 11 8 12 12 13 15 14 10 7 4 9 19 21 21 19 26 30 27 27 27 25 23 16 13 10 10 12 16 19 20

GFSSW_925_spd_195.txt.gz
Wind_Speed
25 25 26 25 25 24 24 24 23 22 21 21 22 22 21 24 25 7 9 5 3 11 10 7 8 10 10 13 11 15 8 1 3 19 6 11 13 7 9 11 6 4 7 25 30
27 27 28 27 25 26 24 25 24 22 21 20 20 19 19 23 21 18 3 4 6 13 9 8 6 5 11 9 5 12 7 8 5 7 10 7 10 10 11 10 8 10 22 32 32
28 29 29 29 27 27 26 25 23 22 21 20 19 18 16 19 14 2 6 8 10 11 7 10 10 8 15 6 5 6 6 4 7 12 6 13 9 7 12 11 12 17 23 26 26
29 29 30 29 29 29 27 24 23 22 21 20 17 17 16 9 6 7 9 9 12 11 7 9 10 12 14 6 2 12 6 8 13 7 6 7 11 7 7 14 12 17 22 22 23
30 31 31 31 31 31 27 26 24 22 21 19 15 11 8 10 17 13 10 8 12 9 12 10 10 11 12 7 4 6 7 10 11 3 14 6 7 8 11 7 13 16 22 23 21
30 31 32 32 32 32 27 28 25 23 19 15 13 7 7 15 2 10 12 11 13 13 15 10 12 12 11 10 2 1 6 8 6 9 6 5 9 10 10 9 15 16 21 22 22
30 31 32 33 33 32 28 26 26 22 15 13 9 7 13 18 6 9 13 16 15 15 14 14 11 14 16 13 3 5 10 8 9 9 11 8 9 8 11 12 15 16 19 20 20
30 32 33 34 35 31 27 25 23 14 12 10 6 9 10 9 22 21 13 16 16 16 15 17 17 17 15 15 7 14 16 15 12 12 8 9 9 14 13 15 15 15 18 19 17
30 32 33 34 36 28 28 21 17 9 8 3 5 10 16 6 15 22 22 25 23 22 18 15 13 16 18 15 15 14 15 22 20 11 11 7 15 15 13 14 17 16 18 19 16
31 32 33 33 34 27 28 21 14 10 5 9 12 7 15 12 10 12 18 23 17 16 16 16 12 15 17 15 15 17 13 15 5 13 6 9 8 16 15 15 16 18 18 20 20
30 32 34 32 30 22 28 16 4 8 10 13 13 15 5 3 13 13 17 13 18 17 20 20 17 20 23 23 22 12 18 15 11 11 4 10 6 19 18 16 18 18 20 19 18
30 31 32 31 20 17 17 8 7 6 12 16 20 21 24 11 10 17 16 14 19 22 23 21 23 24 23 24 24 26 26 8 6 7 5 14 12 14 21 20 21 20 21 23 22
29 31 32 30 12 10 7 10 8 9 8 15 19 21 21 22 20 19 20 20 18 24 27 27 27 24 24 24 23 19 16 11 12 4 11 14 14 15 22 20 19 21 22 22 23
29 31 30 31 8 14 1 11 10 6 6 16 10 10 17 19 21 27 20 21 23 23 26 27 27 26 26 27 24 22 17 14 10 9 12 5 13 16 18 20 21 20 22 23 24
29 30 28 13 14 9 12 13 11 7 6 7 12 5 5 19 8 26 34 21 24 23 19 25 28 27 25 27 25 21 20 16 13 14 16 19 8 7 19 19 21 21 22 22 23
28 28 24 7 10 8 14 12 8 7 12 7 3 7 14 16 20 17 26 24 20 23 23 23 23 29 31 25 27 22 20 11 12 14 14 18 13 13 19 19 21 22 22 22 23
29 26 15 10 9 14 13 9 7 11 5 11 5 4 7 9 18 22 17 26 23 20 22 22 28 25 26 28 25 26 21 11 13 13 14 10 15 4 24 7 18 23 24 23 22
29 18 10 10 10 12 11 9 12 12 21 5 3 8 14 9 11 16 24 21 29 28 18 21 20 30 21 24 25 23 25 13 19 16 14 14 9 7 33 7 13 19 23 23 23
27 15 8 5 7 8 8 11 16 8 7 9 11 15 16 14 7 14 23 23 25 30 26 23 26 29 26 25 25 27 25 23 24 9 10 3 19 14 10 13 5 13 24 25 23
19 17 9 3 6 9 9 15 15 5 7 11 12 12 15 19 13 14 15 18 26 28 30 26 19 26 28 24 27 30 21 22 18 18 3 11 15 12 16 10 10 10 23 24 23
13 5 8 4 7 7 10 14 8 3 7 11 16 16 10 17 5 17 13 11 11 13 24 28 23 21 23 26 26 22 24 21 22 19 7 12 20 17 13 9 2 12 20 23 23
10 5 6 6 9 9 10 8 5 11 9 13 12 12 11 13 11 17 22 10 10 11 13 21 24 18 29 24 29 28 28 26 17 23 15 7 12 20 13 9 6 14 19 21 21
5 6 3 7 8 9 8 5 7 13 10 12 14 15 15 12 8 17 11 8 7 11 8 9 22 17 23 26 27 28 30 28 23 21 21 7 12 20 11 6 12 17 18 19 20
5 3 4 6 4 10 10 7 8 9 11 12 11 13 12 15 12 12 10 2 7 11 14 9 17 23 20 22 23 29 28 28 28 19 20 17 3 12 10 10 16 18 19 20 20
4 2 4 4 2 5 7 11 10 8 11 10 10 14 16 16 19 19 19 17 11 5 12 10 17 23 28 25 24 27 30 28 30 25 25 20 24 31 14 12 15 18 18 20 19
4 4 3 9 8 8 9 12 11 5 10 10 13 2 11 16 17 12 10 2 12 5 10 9 15 21 25 26 23 25 30 31 28 29 27 23 22 23 10 13 14 17 19 20 20
3 7 6 3 9 8 4 4 3 7 8 10 8 11 7 16 16 16 12 15 15 12 11 11 13 18 22 24 26 22 28 31 28 28 27 26 17 25 27 14 16 13 18 19 20